{"data":{"norad_id":68571,"epoch":"2026-09-19T10:09:54.593856Z","epoch_age_seconds":159433,"freshness":"FRESH","line1":"1 68571U 26071A   26262.42354854  .00000105  00000+0  00000+0 0  9990","line2":"2 68571  62.8354 216.3750 7116575 285.4932  11.4432  2.00608167  3408","mean_motion":2.00608167,"eccentricity":0.7116575,"inclination_deg":62.8354,"raan_deg":216.375,"arg_perigee_deg":285.4932,"mean_anomaly_deg":11.4432,"bstar":0,"rev_number":340,"period_min":717.81723622449,"perigee_km":1279.2058816855,"apogee_km":39077.348658578,"semimajor_km":26556.414270132,"source":"CELESTRAK","updated_at":"2026-09-20T09:00:24.317696Z"}}